Regional Weather Roundup
Issued by NWS

Home | Current Version | Previous Version | Graphics & Text | Print | Product List | Glossary On
Versions: 1 2 3 4 5 6 7 8 9 10 11 12 13 14 15 16 17 18 19 20 21 22 23 24 25 26 27 28 29 30 31 32 33 34 35 36 37 38 39 40 41 42 43 44 45 46 47 48 49 50
330
ASUS44 KJAN 301410
RWRMS

MISSISSIPPI HOURLY WEATHER ROUNDUP
NATIONAL WEATHER SERVICE JACKSON MS
800 AM CST FRI JAN 30 2015

NOTE: "FAIR: INDICATES FEW OR NO CLOUDS BELOW 12,000 FEET WITH NO
SIGNIFICANT WEATHER AND/OR OBSTRUCTIONS TO VISIBILITY.

MSZ001>002-007>008-010>013-018>021-025>028-034>036-301500-
NORTHWEST MISSISSIPPI

CITY           SKY/WX    TMP DP  RH WIND       PRES   REMARKS
CLARKSDALE     FAIR      36  32  87 N10       30.50R WCI  28
CLEVELAND      FAIR      36  32  87 N7        30.50R WCI  30
GREENWOOD      SUNNY     38  31  76 N5        30.48R WCI  34
GREENVILLE     SUNNY     36  31  82 N8        30.49R WCI  30
GRENADA        FAIR      32  32 100 N6        30.47R WCI  26
OLIVE BRANCH   MOSUNNY   34  30  86 N9        30.48R WCI  26
OXFORD         FAIR      32  27  80 N9        30.47R WCI  24
TUNICA         SUNNY     34  30  86 N10       30.50R WCI  26
$$

MSZ003>006-009-014>017-022>024-029>033-037>039-301500-
NORTHEAST MISSISSIPPI

CITY           SKY/WX    TMP DP  RH WIND       PRES   REMARKS
COLUMBUS AFB   SUNNY     36  29  76 NW6       30.44R WCI  31
CORINTH        CLOUDY    37  27  65 N6        30.46R WCI  33
GOLDN TRIANGLE SUNNY     37  28  70 N9        30.42R WCI  31
STARKVILLE     FAIR      36  30  80 CALM      30.45R
TUPELO         SUNNY     38  28  67 N9        30.44S WCI  31
$$

MSZ040-058-301500-
CENTRAL MISSISSIPPI

CITY           SKY/WX    TMP DP  RH WIND       PRES   REMARKS
JACKSON INTL   MOSUNNY   42  30  62 N13       30.45R
JACKSON HAWKNS SUNNY     40  30  67 N6        30.46R
MERIDIAN KEY   SUNNY     41  30  65 N10       30.43R
MERIDIAN NAS   MOSUNNY   40  30  67 N9        30.44R WCI  34
RAYMOND        FAIR      37  34  87 MISG      30.46R
VICKSBURG      MOSUNNY   40  32  73 N7        30.48R
$$

MSZ059>079-301500-
SOUTH MISSISSIPPI

CITY           SKY/WX    TMP DP  RH WIND       PRES   REMARKS
BROOKHAVEN     FAIR      39  34  81 N12       30.44R WCI  32
HATTIESBURG    SUNNY     44  35  70 NE13G20   30.43R
MCCOMB         MOSUNNY   42  32  67 NE10G20   30.41R
NATCHEZ        MOSUNNY   41  30  65 N8        30.45R
PINE BELT      SUNNY     43  32  65 NE10      30.42R
$$

MSZ080>082-301500-
COASTAL MISSISSIPPI

CITY           SKY/WX    TMP DP  RH WIND       PRES   REMARKS
BAY ST LOUIS   SUNNY     46  36  66 N14G21    30.37R
BILOXI         MOSUNNY   47  38  70 N15G24    30.36R
PASCAGOULA     MOSUNNY   46  35  65 N20G29    30.36R
GULFPORT       MOSUNNY   47  37  68 NE16G24   30.36R
$$



USA.gov is the U.S. government's official web portal to all federal, state and local government web resources and services.